Location: Unspecified
(37.6100°N, 2.7800°W)
Time: 21:38:57
(UTC+00:00)

ELECTRON R/B - Visible Passes

Search period start: 22 May 2018 00:00
Search period end: 01 June 2018 00:00
Orbit: 285 x 480 km, 82.9° (Epoch: 21 May)

Date Brightness Start Highest point End Pass type
(mag) Time Alt. Az. Time Alt. Az. Time Alt. Az.
22 May 7.5 21:42:55 10° WNW 21:43:50 12° W 21:43:50 12° W visible
23 May 4.2 20:45:21 10° N 20:47:46 66° E 20:48:05 57° SE visible
24 May 7.1 21:22:24 10° NW 21:23:57 15° W 21:24:34 14° WSW visible
25 May 4.5 20:25:03 10° N 20:27:27 52° E 20:28:45 23° SSE visible
26 May 7.1 21:01:41 10° NW 21:03:30 18° W 21:05:11 11° SW visible
27 May 4.9 20:04:28 10° N 20:06:51 41° E 20:09:17 10° SSE visible
28 May 6.8 20:40:44 10° NW 20:42:47 22° W 20:44:53 10° SSW visible
30 May 6.5 20:19:31 10° NNW 20:21:47 28° W 20:24:07 10° SSW visible
